Tracking 25710 objects as of 5-Jul-2022
HD Live streaming from Space Station
objects crossing your sky now

FENGYUN 1C DEB

Track FENGYUN 1C DEB now!
10-day predictions


NORAD ID: 30659
Int'l Code: 1999-025APR
Perigee: 512.0 km
Apogee: 706.1 km
Inclination: 99.0 °
Period: 96.7 minutes
Semi major axis: 6980 km
RCS: 0.009 m2 (small)
Launch date: May 10, 1999
Source: People's Republic of China (PRC)
Launch site: Taiyaun Space Center, China (TSC)

Note: This is SATELLITE DEBRIS
aabbcc
Your satellite tracking list
Your tracking list is empty




NASA's NSSDC Master Catalog

Two Line Element Set (TLE):
1 30659U 99025APR 22185.86027811  .00004894  00000-0  44427-3 0  9998
2 30659  99.0333 141.3871 0138984 110.1377 278.2649 14.88726265827767
Source of the keplerian elements: AFSPC